Location: Seminole
(32.7190°N, 102.6440°W)
Time: 14:54:01
(UTC-05:00)

Meteor 2-10 - Visible Passes

Search period start: 21 August 2017 00:00
Search period end: 31 August 2017 00:00
Orbit: 738 x 869 km, 81.2° (Epoch: 20 August)

Date Brightness Start Highest point End Pass type
(mag) Time Alt. Az. Time Alt. Az. Time Alt. Az.
21 Aug 6.3 03:47:50 20° E 03:47:51 20° E 03:51:49 10° NE visible
21 Aug 4.6 05:28:53 42° W 05:29:23 43° WNW 05:34:45 10° N visible
22 Aug 6.8 03:22:32 13° E 03:22:32 13° E 03:24:26 10° ENE visible
22 Aug 4.2 05:03:35 63° WNW 05:03:35 63° WNW 05:08:55 10° N visible
23 Aug 4.5 04:38:15 63° NNE 04:38:15 63° NNE 04:42:56 10° N visible
24 Aug 5.3 04:12:53 42° NE 04:12:53 42° NE 04:16:48 10° NNE visible
24 Aug 5.9 05:53:55 15° WNW 05:53:55 15° WNW 05:56:43 10° NW visible
25 Aug 6.0 03:47:29 28° NE 03:47:29 28° NE 03:50:30 10° NNE visible
25 Aug 5.7 05:28:31 21° NW 05:28:31 21° NW 05:31:39 10° NNW visible
26 Aug 6.5 03:22:03 18° NE 03:22:03 18° NE 03:23:58 10° NE visible
26 Aug 5.5 05:03:06 26° NW 05:03:06 26° NW 05:06:10 10° NNW visible
27 Aug 7.0 02:56:36 11° NE 02:56:36 11° NE 02:57:02 10° NE visible
27 Aug 5.6 04:37:38 29° NNW 04:37:38 29° NNW 04:40:27 10° N visible
28 Aug 5.9 04:12:10 27° N 04:12:10 27° N 04:14:34 10° N visible
29 Aug 6.3 03:46:40 22° NNE 03:46:40 22° NNE 03:48:31 10° NNE visible
30 Aug 6.7 03:21:09 16° NNE 03:21:09 16° NNE 03:22:18 10° NNE visible
30 Aug 6.4 05:02:11 12° NW 05:02:11 12° NW 05:02:43 10° NNW visible
